Location: Bednik
(45.3500°N, 16.3833°E)
Time: 17:29:21
(UTC+00:00)

Spot 4 - Pass Details

Date: 08 August 2020
Orbit: 704 x 723 km, 98.3° (Epoch: 25 September)

Event Time Altitude Azimuth Distance (km) Brightness Sun altitude
Exits shadow 21:27:25 52° 70° (ENE) 889 4.2 -25.3°
Drops below altitude 10° 21:32:05 10° 356° (N) 2,204 7.3 -25.7°
Sets 21:34:25 0° 351° (N) 3,131 8.4 -25.8°
